IW7DVM-13 Weather Reports


Display with metric or nautical units.
time (UTC)temp
F
wind
direction
speed
MPH
gust
MPH
rain 1hr
in
rain 24hr
in
rain mn
in
humidity
%
barometer
mb
20260901111003 91 220 5.0 11.0 0.00 0.00 0.00 58 1009.6
20260901110503 90 228 6.0 13.0 0.00 0.00 0.00 59 1009.6
20260901110003 90 205 6.0 12.0 0.00 0.00 0.00 59 1009.6
20260901105503 90 220 6.0 11.0 0.00 0.00 0.00 59 1009.7
20260901105003 89 233 6.0 11.0 0.00 0.00 0.00 60 1009.7
20260901104503 89 212 6.0 11.0 0.00 0.00 0.00 61 1009.8
20260901104003 89 216 5.0 10.0 0.00 0.00 0.00 62 1009.9
20260901103503 88 218 7.0 12.0 0.00 0.00 0.00 62 1009.8
20260901103003 89 207 7.0 12.0 0.00 0.00 0.00 61 1010.0
20260901102503 89 218 5.0 11.0 0.00 0.00 0.00 61 1010.0
20260901102003 90 214 7.0 12.0 0.00 0.00 0.00 60 1010.0
20260901101503 91 220 5.0 12.0 0.00 0.00 0.00 58 1010.0
20260901101003 90 227 4.0 8.0 0.00 0.00 0.00 58 1009.9
20260901100503 90 238 4.0 10.0 0.00 0.00 0.00 60 1009.9
20260901100003 90 218 5.0 8.0 0.00 0.00 0.00 61 1010.1
20260901095503 89 225 5.0 10.0 0.00 0.00 0.00 62 1010.2
20260901095003 89 212 6.0 11.0 0.00 0.00 0.00 62 1010.2
20260901094503 89 213 6.0 12.0 0.00 0.00 0.00 62 1010.3
20260901094003 89 227 5.0 11.0 0.00 0.00 0.00 61 1010.3
20260901093503 89 222 6.0 13.0 0.00 0.00 0.00 61 1010.2
20260901093003 89 219 4.0 9.0 0.00 0.00 0.00 61 1010.2
20260901092503 89 244 4.0 7.0 0.00 0.00 0.00 61 1010.3
20260901092003 89 234 4.0 9.0 0.00 0.00 0.00 62 1010.3
20260901091503 89 216 4.0 8.0 0.00 0.00 0.00 62 1010.3
20260901091003 89 229 4.0 10.0 0.00 0.00 0.00 62 1010.2
20260901090503 88 229 4.0 9.0 0.00 0.00 0.00 63 1010.4
20260901090003 88 232 4.0 9.0 0.00 0.00 0.00 63 1010.3
20260901085503 87 216 5.0 12.0 0.00 0.00 0.00 63 1010.4
20260901085003 87 232 4.0 7.0 0.00 0.00 0.00 63 1010.3
20260901084503 87 223 6.0 12.0 0.00 0.00 0.00 63 1010.3
20260901084003 87 216 5.0 12.0 0.00 0.00 0.00 63 1010.3
20260901083503 86 217 6.0 14.0 0.00 0.00 0.00 64 1010.2
20260901083003 86 214 7.0 13.0 0.00 0.00 0.00 64 1010.2
20260901082503 87 223 5.0 11.0 0.00 0.00 0.00 63 1010.2
20260901082003 87 218 4.0 10.0 0.00 0.00 0.00 64 1010.1
20260901081503 86 228 4.0 9.0 0.00 0.00 0.00 64 1010.3
20260901081004 86 219 5.0 12.0 0.00 0.00 0.00 64 1010.3
20260901080503 86 229 6.0 12.0 0.00 0.00 0.00 64 1010.2
20260901080005 86 234 3.0 9.0 0.00 0.00 0.00 64 1010.2
20260901075503 86 256 4.0 9.0 0.00 0.00 0.00 64 1010.2
20260901075003 86 244 4.0 9.0 0.00 0.00 0.00 65 1010.2
20260901074503 86 238 4.0 8.0 0.00 0.00 0.00 64 1010.2
20260901074003 87 265 3.0 5.0 0.00 0.00 0.00 64 1010.2
20260901073503 87 286 2.0 5.0 0.00 0.00 0.00 64 1010.1
20260901073003 87 342 2.0 6.0 0.00 0.00 0.00 64 1009.9
20260901072503 86 270 1.0 3.0 0.00 0.00 0.00 64 1010.0
20260901072003 86 323 2.0 5.0 0.00 0.00 0.00 65 1010.0
20260901071503 85 272 1.0 3.0 0.00 0.00 0.00 65 1010.0
20260901071003 84 316 3.0 6.0 0.00 0.00 0.00 66 1010.0
20260901070503 84 249 4.0 9.0 0.00 0.00 0.00 65 1009.9
20260901070003 84 246 3.0 7.0 0.00 0.00 0.00 66 1009.9
20260901065503 84 238 4.0 8.0 0.00 0.00 0.00 66 1009.9
20260901065003 84 237 2.0 6.0 0.00 0.00 0.00 66 1009.9
20260901064503 83 239 3.0 9.0 0.00 0.00 0.00 66 1010.0
20260901064003 83 221 3.0 6.0 0.00 0.00 0.00 66 1010.0
20260901063503 83 232 4.0 8.0 0.00 0.00 0.00 66 1010.2
20260901063003 84 265 2.0 6.0 0.00 0.00 0.00 66 1010.1
20260901062503 83 248 2.0 5.0 0.00 0.00 0.00 66 1010.1
20260901062003 83 223 2.0 6.0 0.00 0.00 0.00 66 1010.0
20260901061503 83 230 3.0 8.0 0.00 0.00 0.00 66 1010.0
20260901061003 83 239 1.0 6.0 0.00 0.00 0.00 66 1010.0
20260901060503 83 271 1.0 4.0 0.00 0.00 0.00 66 1010.0
20260901060003 83 263 2.0 4.0 0.00 0.00 0.00 66 1009.9
20260901055503 83 314 1.0 4.0 0.00 0.00 0.00 66 1010.0
20260901055003 82 324 2.0 4.0 0.00 0.00 0.00 66 1010.0
20260901054503 82 346 2.0 4.0 0.00 0.00 0.00 66 1010.0
20260901054003 82 343 2.0 4.0 0.00 0.00 0.00 67 1009.9
20260901053503 81 311 1.0 3.0 0.00 0.00 0.00 67 1009.9
20260901053003 81 309 1.0 3.0 0.00 0.00 0.00 67 1010.0
20260901052503 80 360 0.0 2.0 0.00 0.00 0.00 67 1009.9
20260901052004 80 7 2.0 4.0 0.00 0.00 0.00 67 1009.9
20260901051503 80 21 2.0 4.0 0.00 0.00 0.00 67 1009.9
20260901051003 79 22 2.0 3.0 0.00 0.00 0.00 67 1009.9
20260901050503 79 14 2.0 4.0 0.00 0.00 0.00 67 1009.8
20260901050003 79 360 1.0 3.0 0.00 0.00 0.00 67 1009.7
20260901045503 79 360 2.0 3.0 0.00 0.00 0.00 67 1009.6
20260901045003 78 360 1.0 2.0 0.00 0.00 0.00 67 1009.8
20260901044505 78 360 0.0 2.0 0.00 0.00 0.00 67 1009.7
20260901044003 78 0 0.0 0.0 0.00 0.00 0.00 67 1009.6
20260901043503 78 0 0.0 0.0 0.00 0.00 0.00 67 1009.7
20260901043003 78 360 1.0 2.0 0.00 0.00 0.00 67 1009.6
20260901042503 78 360 1.0 2.0 0.00 0.00 0.00 67 1009.7
20260901042003 78 360 1.0 2.0 0.00 0.00 0.00 67 1009.7
20260901041503 78 360 1.0 2.0 0.00 0.00 0.00 67 1009.7
20260901041003 78 8 2.0 4.0 0.00 0.00 0.00 67 1009.7
20260901040503 78 8 2.0 3.0 0.00 0.00 0.00 67 1009.7
20260901040003 78 19 1.0 3.0 0.00 0.00 0.00 67 1009.6
20260901035503 78 4 1.0 2.0 0.00 0.00 0.00 67 1009.6
20260901035003 78 20 1.0 2.0 0.00 0.00 0.00 67 1009.5
20260901034503 79 18 1.0 2.0 0.00 0.00 0.00 67 1009.5
20260901034003 79 19 2.0 3.0 0.00 0.00 0.00 67 1009.5
20260901033503 79 22 2.0 4.0 0.00 0.00 0.00 67 1009.5
20260901033003 79 24 2.0 4.0 0.00 0.00 0.00 67 1009.5
20260901032503 79 23 3.0 4.0 0.00 0.00 0.00 67 1009.4
20260901032003 79 11 2.0 4.0 0.00 0.00 0.00 67 1009.4
20260901031503 79 337 2.0 2.0 0.00 0.00 0.00 67 1009.4
20260901031003 79 337 0.0 2.0 0.00 0.00 0.00 67 1009.5
20260901030503 79 337 1.0 2.0 0.00 0.00 0.00 67 1009.4
20260901030003 79 337 0.0 1.0 0.00 0.00 0.00 67 1009.4
20260901025503 79 337 0.0 1.0 0.00 0.00 0.00 67 1009.4
20260901025003 79 337 0.0 1.0 0.00 0.00 0.00 67 1009.3
20260901024503 79 337 1.0 2.0 0.00 0.00 0.00 67 1009.3
20260901024003 79 337 1.0 3.0 0.00 0.00 0.00 67 1009.1
20260901023503 79 337 2.0 3.0 0.00 0.00 0.00 67 1009.1
20260901023003 79 337 2.0 4.0 0.00 0.00 0.00 67 1009.0
20260901022503 79 326 1.0 3.0 0.00 0.00 0.00 67 1009.3
20260901022003 79 315 1.0 3.0 0.00 0.00 0.00 67 1009.3
20260901021503 79 330 1.0 2.0 0.00 0.00 0.00 67 1009.3
20260901021003 79 7 1.0 2.0 0.00 0.00 0.00 67 1009.2
20260901020503 79 16 0.0 2.0 0.00 0.00 0.00 67 1009.3
20260901020003 79 29 1.0 3.0 0.00 0.00 0.00 67 1009.3
20260901015503 79 13 2.0 4.0 0.00 0.00 0.00 67 1009.2
20260901015003 79 12 2.0 4.0 0.00 0.00 0.00 67 1009.1
20260901014503 79 11 3.0 5.0 0.00 0.00 0.00 67 1009.1
20260901014003 79 13 3.0 4.0 0.00 0.00 0.00 67 1009.1
20260901013503 79 14 2.0 4.0 0.00 0.00 0.00 67 1009.2
20260901013004 79 24 2.0 4.0 0.00 0.00 0.00 67 1009.1
20260901012503 79 17 2.0 4.0 0.00 0.00 0.00 67 1009.1
20260901012003 79 23 2.0 4.0 0.00 0.00 0.00 67 1009.1
20260901011504 79 19 2.0 4.0 0.00 0.00 0.00 67 1009.2
20260901011004 79 12 3.0 4.0 0.00 0.00 0.00 67 1009.1
20260901010503 79 9 3.0 4.0 0.00 0.00 0.00 67 1009.1
20260901010003 79 12 4.0 5.0 0.00 0.00 0.00 67 1009.0
20260901005503 80 14 3.0 6.0 0.00 0.00 0.00 67 1009.2
20260901005003 80 15 3.0 4.0 0.00 0.00 0.00 67 1009.1
20260901004503 80 17 3.0 4.0 0.00 0.00 0.00 67 1009.1
20260901004003 80 12 2.0 5.0 0.00 0.00 0.00 67 1009.2
20260901003503 80 12 3.0 4.0 0.00 0.00 0.00 67 1009.1
20260901003003 80 9 2.0 4.0 0.00 0.00 0.00 67 1009.0
20260901002503 80 17 3.0 5.0 0.00 0.00 0.00 67 1009.0
20260901002003 80 15 3.0 5.0 0.00 0.00 0.00 67 1009.0
20260901001503 80 18 3.0 5.0 0.00 0.00 0.00 67 1009.0
20260901001003 80 22 3.0 4.0 0.00 0.00 0.00 67 1009.0
20260901000503 80 18 2.0 4.0 0.00 0.00 0.00 67 1009.1
20260901000003 80 20 2.0 4.0 0.00 0.00 0.00 67 1009.0
20260831235503 81 27 3.0 4.0 0.00 0.00 0.00 68 1009.0
20260831235003 81 27 3.0 5.0 0.00 0.00 0.00 67 1009.0
20260831234503 81 25 2.0 4.0 0.00 0.00 0.00 68 1009.1
20260831234003 81 26 2.0 3.0 0.00 0.00 0.00 67 1009.1
20260831233503 81 28 2.0 4.0 0.00 0.00 0.00 67 1009.0
20260831233003 82 20 2.0 4.0 0.00 0.00 0.00 67 1009.0
20260831232503 82 20 3.0 4.0 0.00 0.00 0.00 67 1009.0
20260831232003 82 21 3.0 4.0 0.00 0.00 0.00 67 1009.0
20260831231503 82 10 2.0 3.0 0.00 0.00 0.00 67 1009.1
20260831231003 82 30 2.0 4.0 0.00 0.00 0.00 67 1009.0
20260831230503 82 67 0.0 2.0 0.00 0.00 0.00 67 1009.0
20260831230003 82 67 0.0 2.0 0.00 0.00 0.00 67 1008.9
20260831225503 82 67 1.0 2.0 0.00 0.00 0.00 67 1009.0
20260831225003 82 67 1.0 2.0 0.00 0.00 0.00 67 1009.0
20260831224503 82 69 0.0 2.0 0.00 0.00 0.00 67 1009.0
20260831224003 82 90 0.0 2.0 0.00 0.00 0.00 67 1009.0
20260831223503 82 80 0.0 1.0 0.00 0.00 0.00 67 1008.9
20260831223003 82 68 1.0 2.0 0.00 0.00 0.00 67 1008.9
20260831222503 82 65 1.0 3.0 0.00 0.00 0.00 67 1008.9
20260831222003 83 65 1.0 3.0 0.00 0.00 0.00 67 1008.8
20260831221503 83 59 1.0 3.0 0.00 0.00 0.00 66 1008.9
20260831221003 83 49 1.0 3.0 0.00 0.00 0.00 66 1008.7
20260831220503 83 62 1.0 4.0 0.00 0.00 0.00 66 1009.0
20260831220003 83 68 1.0 3.0 0.00 0.00 0.00 66 1008.9
20260831215503 83 74 3.0 6.0 0.00 0.00 0.00 66 1008.7
20260831215003 84 66 1.0 4.0 0.00 0.00 0.00 65 1008.9
20260831214503 84 79 1.0 3.0 0.00 0.00 0.00 65 1008.9
20260831214003 84 85 0.0 2.0 0.00 0.00 0.00 65 1008.8
20260831213503 85 55 0.0 1.0 0.00 0.00 0.00 65 1008.9
20260831213003 85 0 0.0 0.0 0.00 0.00 0.00 65 1008.7
20260831212503 85 0 0.0 0.0 0.00 0.00 0.00 65 1008.7
20260831212003 85 0 0.0 0.0 0.00 0.00 0.00 65 1008.7
20260831211503 84 67 0.0 1.0 0.00 0.00 0.00 65 1008.7
20260831211004 85 45 0.0 1.0 0.00 0.00 0.00 65 1008.6
20260831210503 85 0 0.0 0.0 0.00 0.00 0.00 65 1008.6
20260831210008 85 0 0.0 0.0 0.00 0.00 0.00 65 1008.5
20260831205503 85 0 0.0 0.0 0.00 0.00 0.00 65 1008.6
20260831205003 85 0 0.0 0.0 0.00 0.00 0.00 65 1008.5
20260831204503 85 0 0.0 0.0 0.00 0.00 0.00 65 1008.4
20260831204003 85 0 0.0 0.0 0.00 0.00 0.00 65 1008.4
20260831203503 85 0 0.0 0.0 0.00 0.00 0.00 65 1008.4
20260831203003 85 45 0.0 1.0 0.00 0.00 0.00 65 1008.5
20260831202503 85 45 2.0 2.0 0.00 0.00 0.00 65 1008.3
20260831202003 85 23 2.0 4.0 0.00 0.00 0.00 65 1008.3
20260831201503 85 334 2.0 3.0 0.00 0.00 0.00 64 1008.3
20260831201003 86 312 1.0 3.0 0.00 0.00 0.00 64 1008.2
20260831200503 86 292 0.0 1.0 0.00 0.00 0.00 64 1008.2
20260831200003 86 292 0.0 1.0 0.00 0.00 0.00 64 1008.3
20260831195503 86 292 1.0 2.0 0.00 0.00 0.00 64 1008.2
20260831195003 86 292 1.0 2.0 0.00 0.00 0.00 64 1008.1
20260831194503 86 292 1.0 2.0 0.00 0.00 0.00 64 1008.1
20260831194003 86 292 1.0 2.0 0.00 0.00 0.00 65 1008.2
20260831193503 86 292 1.0 3.0 0.00 0.00 0.00 65 1008.2
20260831193003 86 288 0.0 2.0 0.00 0.00 0.00 65 1008.2
20260831192503 86 0 0.0 0.0 0.00 0.00 0.00 65 1008.2
20260831192003 86 270 0.0 1.0 0.00 0.00 0.00 65 1008.2
20260831191503 86 0 0.0 0.0 0.00 0.00 0.00 65 1008.1
20260831191003 86 0 0.0 0.0 0.00 0.00 0.00 65 1008.1
20260831190503 86 270 1.0 2.0 0.00 0.00 0.00 65 1008.1
20260831190003 86 270 1.0 2.0 0.00 0.00 0.00 65 1008.0
20260831185503 86 268 1.0 3.0 0.00 0.00 0.00 65 1008.1
20260831185003 86 253 1.0 4.0 0.00 0.00 0.00 65 1008.2
20260831184503 86 251 2.0 5.0 0.00 0.00 0.00 65 1008.3
20260831184004 87 241 2.0 5.0 0.00 0.00 0.00 65 1008.1
20260831183503 87 218 3.0 5.0 0.00 0.00 0.00 64 1008.1
20260831183003 87 215 1.0 4.0 0.00 0.00 0.00 63 1007.8
20260831182503 87 0 0.0 0.0 0.00 0.00 0.00 63 1007.6
20260831182003 87 225 0.0 2.0 0.00 0.00 0.00 63 1007.6
20260831181503 87 225 0.0 2.0 0.00 0.00 0.00 63 1007.6
20260831181003 87 0 0.0 0.0 0.00 0.00 0.00 63 1007.5
20260831180503 87 225 0.0 1.0 0.00 0.00 0.00 63 1007.4
20260831180003 87 225 0.0 1.0 0.00 0.00 0.00 63 1007.5
20260831175503 87 225 0.0 2.0 0.00 0.00 0.00 64 1007.5
20260831175003 87 225 1.0 2.0 0.00 0.00 0.00 64 1007.5
20260831174503 87 225 1.0 2.0 0.00 0.00 0.00 64 1007.4
20260831174003 87 225 1.0 2.0 0.00 0.00 0.00 64 1007.5
20260831173503 87 224 2.0 4.0 0.00 0.00 0.00 64 1007.6
20260831173003 87 214 2.0 4.0 0.00 0.00 0.00 63 1007.6
20260831172503 88 228 3.0 6.0 0.00 0.00 0.00 63 1007.7
20260831172003 88 217 2.0 4.0 0.00 0.00 0.00 61 1007.6
20260831171503 88 204 2.0 3.0 0.00 0.00 0.00 60 1007.5
20260831171003 88 217 2.0 4.0 0.00 0.00 0.00 60 1007.4
20260831170504 89 216 2.0 4.0 0.00 0.00 0.00 60 1007.6
20260831170003 89 212 1.0 3.0 0.00 0.00 0.00 59 1007.5
20260831165503 88 226 1.0 3.0 0.00 0.00 0.00 59 1007.5
20260831165003 88 210 1.0 2.0 0.00 0.00 0.00 59 1007.5
20260831164503 88 202 2.0 3.0 0.00 0.00 0.00 59 1007.7
20260831164003 88 202 1.0 2.0 0.00 0.00 0.00 59 1007.7
20260831163503 88 202 1.0 3.0 0.00 0.00 0.00 59 1007.6
20260831163003 89 208 2.0 4.0 0.00 0.00 0.00 59 1007.6
20260831162503 89 193 2.0 4.0 0.00 0.00 0.00 59 1007.7
20260831162003 89 144 1.0 3.0 0.00 0.00 0.00 59 1007.6
20260831161503 90 47 2.0 4.0 0.00 0.00 0.00 59 1007.6
20260831161003 90 79 2.0 4.0 0.00 0.00 0.00 58 1007.6
20260831160503 90 31 3.0 5.0 0.00 0.00 0.00 57 1007.7
20260831160003 90 52 3.0 6.0 0.00 0.00 0.00 56 1007.5
20260831155503 91 30 4.0 6.0 0.00 0.00 0.00 54 1007.2
20260831155003 91 26 3.0 6.0 0.00 0.00 0.00 54 1007.1
20260831154503 91 51 3.0 6.0 0.00 0.00 0.00 54 1007.2
20260831154003 91 50 2.0 6.0 0.00 0.00 0.00 54 1007.3
20260831153503 92 53 5.0 9.0 0.00 0.00 0.00 54 1007.2
20260831153003 94 32 4.0 10.0 0.00 0.00 0.00 52 1007.1
20260831152503 95 22 5.0 8.0 0.00 0.00 0.00 51 1007.2
20260831152003 95 43 3.0 6.0 0.00 0.00 0.00 52 1007.2
20260831151503 94 31 2.0 6.0 0.00 0.00 0.00 53 1007.2
20260831151003 93 37 3.0 8.0 0.00 0.00 0.00 56 1007.2
20260831150503 92 43 6.0 10.0 0.00 0.00 0.00 57 1007.3
20260831150003 93 45 6.0 10.0 0.00 0.00 0.00 57 1007.3
20260831145503 94 26 7.0 11.0 0.00 0.00 0.00 56 1007.2
20260831145003 94 34 8.0 17.0 0.00 0.00 0.00 55 1007.3
20260831144503 92 49 5.0 9.0 0.00 0.00 0.00 54 1007.2
20260831144003 92 36 6.0 10.0 0.00 0.00 0.00 54 1007.2
20260831143503 92 30 10.0 15.0 0.00 0.00 0.00 53 1007.3
20260831143004 92 33 9.0 15.0 0.00 0.00 0.00 51 1007.3
20260831142503 92 26 7.0 13.0 0.00 0.00 0.00 52 1007.4
20260831142003 91 36 9.0 17.0 0.00 0.00 0.00 54 1007.4
20260831141503 91 23 10.0 15.0 0.00 0.00 0.00 55 1007.4
20260831141003 91 26 10.0 15.0 0.00 0.00 0.00 53 1007.8
20260831140503 91 50 12.0 20.0 0.00 0.00 0.00 53 1007.9
20260831140003 92 114 4.0 9.0 0.00 0.00 0.00 61 1007.5
20260831135503 92 155 5.0 10.0 0.00 0.00 0.00 61 1007.0
20260831135003 91 152 5.0 13.0 0.00 0.00 0.00 61 1007.0
20260831134503 92 164 4.0 8.0 0.00 0.00 0.00 61 1007.2
20260831134003 91 181 6.0 12.0 0.00 0.00 0.00 62 1007.0
20260831133503 92 184 5.0 12.0 0.00 0.00 0.00 61 1006.7
20260831133003 91 184 5.0 10.0 0.00 0.00 0.00 61 1006.8
20260831132503 91 184 6.0 10.0 0.00 0.00 0.00 62 1006.6
20260831132003 91 184 7.0 13.0 0.00 0.00 0.00 61 1006.7
20260831131503 91 184 6.0 11.0 0.00 0.00 0.00 61 1006.9
20260831131004 91 179 7.0 11.0 0.00 0.00 0.00 62 1007.0
20260831130503 91 179 5.0 11.0 0.00 0.00 0.00 61 1007.0
20260831130003 91 171 6.0 13.0 0.00 0.00 0.00 62 1007.1
20260831125503 90 176 7.0 12.0 0.00 0.00 0.00 61 1007.1
20260831125003 91 180 7.0 13.0 0.00 0.00 0.00 61 1007.2
20260831124505 91 163 6.0 11.0 0.00 0.00 0.00 61 1007.3
20260831124003 90 181 7.0 12.0 0.00 0.00 0.00 60 1007.3
20260831123503 91 187 7.0 11.0 0.00 0.00 0.00 60 1007.3
20260831123003 91 196 6.0 11.0 0.00 0.00 0.00 61 1007.3
20260831122503 91 183 6.0 10.0 0.00 0.00 0.00 60 1007.4
20260831122003 91 185 5.0 9.0 0.00 0.00 0.00 60 1007.4
20260831121503 91 177 6.0 13.0 0.00 0.00 0.00 60 1007.3
20260831121003 92 181 5.0 10.0 0.00 0.00 0.00 59 1007.3
20260831120503 92 180 5.0 8.0 0.00 0.00 0.00 59 1007.4
20260831120003 92 193 5.0 10.0 0.00 0.00 0.00 59 1007.4
20260831115503 92 197 5.0 10.0 0.00 0.00 0.00 58 1007.4
20260831115003 92 197 5.0 10.0 0.00 0.00 0.00 59 1007.6
20260831114503 91 202 6.0 11.0 0.00 0.00 0.00 58 1007.7
20260831114003 90 202 7.0 11.0 0.00 0.00 0.00 59 1007.6
20260831113503 90 203 7.0 11.0 0.00 0.00 0.00 60 1007.7
20260831113003 90 202 7.0 11.0 0.00 0.00 0.00 60 1007.6
20260831112503 90 206 7.0 11.0 0.00 0.00 0.00 59 1007.6
20260831112003 90 200 5.0 10.0 0.00 0.00 0.00 60 1007.7
20260831111503 91 207 5.0 10.0 0.00 0.00 0.00 59 1007.7